• Join FlightAware (Why Join?)
  • Login
  • US Flag 
04:51AM EST


 

Airport Tracker/Info


-or-


 

Live Flight TrackerFlight Track Log ✈ N27XP ✈ 21-Mar-2014 ✈ KISM - KRDU

Flight Track Log - Related Links

Times and Time Zones

All times are in EDT time to prevent confusion due to time zone crossing. See the N27XP flight status page for this flight to view local times or setup timezone preferences in your user account.

Time Position Orientation Groundspeed Altitude Reporting Facility
EDT Latitude Longitude Course Direction KTS MPH feet Rate Location/Type
11:23AM 28.2833 -81.4333 180° South 157 181 600  Level Orlando TRACON
11:24AM 28.2500 -81.4333 180° South 181 208 1,600 1,611 Climbing Orlando TRACON
11:25AM 28.2500 -81.5167 270° West 217 250 3,500 1,785 Climbing Orlando TRACON
11:26AM 28.3000 -81.5333 344° North 239 275 5,200 2,312 Climbing Orlando TRACON
11:27AM 28.3667 -81.5667 336° Northwest 266 306 7,700 2,230 Climbing Orlando TRACON
11:28AM 28.4831 -81.5583 North 298 343 10,700 1,804 Climbing Jacksonville Center
11:29AM 28.5728 -81.5547 North 308 354 12,300 1,700 Climbing Jacksonville Center
11:30AM 28.6689 -81.5533 North 322 371 14,100 1,686 Climbing Jacksonville Center
11:31AM 28.7669 -81.5497 North 334 384 15,700 1,664 Climbing Jacksonville Center
11:32AM 28.8628 -81.5458 North 345 397 17,400 1,550 Climbing Jacksonville Center
11:33AM 28.9589 -81.5400 North 345 397 18,800 1,438 Climbing Jacksonville Center
11:34AM 29.0608 -81.5289 North 345 397 20,300 1,261 Climbing Jacksonville Center
11:35AM 29.1486 -81.5208 North 345 397 21,300 1,250 Climbing Jacksonville Center
11:36AM 29.2467 -81.5311 355° North 350 403 22,800 1,488 Climbing Jacksonville Center
11:37AM 29.3469 -81.5417 355° North 350 403 24,300 1,400 Climbing Jacksonville Center
11:38AM 29.4514 -81.5475 357° North 356 410 25,600 1,350 Climbing Jacksonville Center
11:39AM 29.5517 -81.5508 358° North 356 410 27,000 1,200 Climbing Jacksonville Center
11:40AM 29.6500 -81.5567 357° North 356 410 28,000 1,008 Climbing Jacksonville Center
11:41AM 29.7503 -81.5600 358° North 356 410 29,000 1,008 Climbing Jacksonville Center
11:42AM 29.8525 -81.5636 358° North 361 415 30,000 992 Climbing Jacksonville Center
11:43AM 29.9525 -81.5572 North 361 415 31,000 500 Climbing Jacksonville Center
11:44AM 30.0592 -81.5533 North 366 421 31,000  Level Jacksonville Center
11:45AM 30.1675 -81.5494 North 377 434 31,000  Level Jacksonville Center
11:46AM 30.2803 -81.5503 360° North 390 449 31,000  Level Jacksonville Center
11:48AM 30.5039 -81.5592 North 400 460 31,000 267 Level Jacksonville Center
11:49AM 30.6142 -81.5361 10° North 400 460 31,800 756 Climbing Jacksonville Center
11:50AM 30.7247 -81.5150 North 406 467 32,500 605 Climbing Jacksonville Center
11:51AM 30.8331 -81.4894 11° North 400 460 33,000 248 Climbing Jacksonville Center
11:52AM 30.9414 -81.4658 11° North 395 455 33,000  Level Jacksonville Center
11:53AM 31.0517 -81.4425 10° North 395 455 33,000  Level Jacksonville Center
11:54AM 31.1642 -81.4189 North 395 455 33,000  Level Jacksonville Center
11:55AM 31.1679 -81.4371 North  Level FlightAware Approximate
11:55AM 31.2744 -81.3978 North 400 460 33,000  Level Jacksonville Center
11:56AM 31.3994 -81.3664 12° North 405 466 33,000  Level Jacksonville Center
11:57AM 31.4972 -81.3453 10° North 405 466 33,000  Level Jacksonville Center
11:58AM 31.6222 -81.3189 10° North 410 472 33,000  Level Jacksonville Center
11:59AM 31.7306 -81.2950 11° North 410 472 33,000  Level Jacksonville Center
12:00PM 31.8325 -81.2714 11° North 410 472 33,000  Level Jacksonville Center
12:01PM 31.9408 -81.2475 11° North 410 472 33,000  Level Jacksonville Center
12:02PM 32.0511 -81.2258 North 410 472 33,000  Level Jacksonville Center
12:03PM 32.1594 -81.2017 11° North 410 472 33,000 -50 Level Jacksonville Center
12:04PM 32.2658 -81.1925 North 398 458 32,900  Descending Jacksonville Center
12:05PM 32.3764 -81.1831 North 398 458 33,000 50 Climbing Jacksonville Center
12:06PM 32.4931 -81.1733 North 384 442 33,000  Level Jacksonville Center
12:07PM 32.5889 -81.1667 North 384 442 33,000  Level Jacksonville Center
12:08PM 32.6994 -81.1547 North 384 442 33,000  Level Jacksonville Center
12:09PM 32.8078 -81.1303 11° North 384 442 33,000  Level Jacksonville Center
12:10PM 32.9133 -81.0764 23° Northeast 398 458 33,000  Level Jacksonville Center
12:11PM 33.0169 -81.0197 25° Northeast 403 464 33,000  Level Jacksonville Center
12:12PM 33.1267 -80.9628 23° Northeast 414 476 33,000  Level Jacksonville Center
12:13PM 33.2322 -80.9058 24° Northeast 414 476 33,000  Level Jacksonville Center
12:14PM 33.3378 -80.8489 24° Northeast 414 476 33,000  Level Jacksonville Center
12:15PM 33.4475 -80.7942 23° Northeast 414 476 33,000  Level Jacksonville Center
12:16PM 33.5550 -80.7367 24° Northeast 414 476 33,000  Level Jacksonville Center
12:17PM 33.6708 -80.6739 24° Northeast 414 476 33,000 -151 Level Jacksonville Center
12:18PM 33.7803 -80.6161 24° Northeast 414 476 32,700 -900 Descending Jacksonville Center
12:19PM 33.8900 -80.5558 25° Northeast 414 476 31,200 -1,500 Descending Jacksonville Center
12:20PM 33.9972 -80.4981 24° Northeast 414 476 29,700 -1,513 Descending Jacksonville Center
12:21PM 34.1089 -80.4372 24° Northeast 414 476 28,200 -1,339 Descending Jacksonville Center
12:22PM 34.2181 -80.3764 25° Northeast 414 476 27,000 -942 Descending Jacksonville Center
12:23PM 34.3358 -80.3125 24° Northeast 427 491 26,300 -1,150 Descending Jacksonville Center
12:24PM 34.4472 -80.2539 23° Northeast 438 504 24,700 -1,200 Descending Jacksonville Center
12:25PM 34.5606 -80.1900 25° Northeast 438 504 23,900 -703 Descending Jacksonville Center
12:26PM 34.6764 -80.1225 26° Northeast 429 494 23,200 -429 Descending Washington Center
12:27PM 34.7853 -80.0553 27° Northeast 429 494 23,000 -102 Descending Washington Center
12:28PM 34.8742 -79.9667 39° Northeast 443 510 23,000 -298 Level Washington Center
12:29PM 34.9719 -79.8603 42° Northeast 459 528 22,400 -1,220 Descending Washington Center
12:31PM 35.1542 -79.6617 45° Northeast 442 509 19,300 -1,691 Descending Washington Center
12:32PM 35.2447 -79.5747 38° Northeast 417 480 17,300 -2,288 Descending Washington Center
12:33PM 35.3494 -79.5008 30° Northeast 389 448 14,800 -2,486 Descending Washington Center
12:34PM 35.3600 -79.4939 28° Northeast 379 436 14,400 -2,754 Descending Washington Center
12:34PM 35.4283 -79.4436 31° Northeast 375 432 12,000 -1,855 Descending Washington Center
12:35PM 35.5119 -79.3761 33° Northeast 329 379 11,000 -504 Descending Washington Center
12:36PM 35.5625 -79.2944 53° Northeast 319 367 11,000  Level Washington Center
12:37PM 35.5650 -79.2867 68° East 316 364 11,000  Level Washington Center
12:37PM 35.6175 -79.2050 52° Northeast 324 373 11,000  Level Washington Center
12:38PM 35.6242 -79.1925 57° Northeast 323 372 11,000 -492 Level Washington Center
12:38PM 35.6747 -79.1078 54° Northeast 324 373 10,500 -590 Descending Washington Center
12:39PM 35.6767 -79.1078 360° North 316 364 10,400 -1,176 Descending Washington Center
12:39PM 35.7119 -79.0456 55° Northeast 296 341 9,500 -1,053 Descending Washington Center
12:39PM 35.7164 -79.0381 54° Northeast 310 357 9,400 -1,224 Descending Washington Center
12:40PM 35.7514 -78.9806 53° Northeast 273 314 8,500 -1,180 Descending Washington Center
12:40PM 35.7664 -78.9683 33° Northeast 287 330 8,200 -380 Descending Washington Center
12:41PM 35.8278 -78.9275 28° Northeast 232 267 8,000 -637 Descending Washington Center
12:42PM 35.8831 -78.8992 23° Northeast 223 257 7,000 -984 Descending Washington Center
12:42PM 35.8831 -78.8967 90° East 240 276 7,000 -1,545 Level Washington Center
12:43PM 35.9383 -78.8553 31° Northeast 223 257 5,300 -1,587 Descending Washington Center
12:44PM 35.9836 -78.8033 43° Northeast 222 255 3,800 -1,038 Descending Washington Center
12:46PM 36.0189 -78.7328 58° Northeast 201 231 3,000 -783 Descending Washington Center
12:46PM 35.9928 -78.6958 131° Southeast 190 219 2,300 -577 Descending Washington Center
12:47PM 35.9444 -78.7067 190° South 190 219 2,000 -425 Descending Washington Center
12:49PM 35.9058 -78.7489 222° Southwest 144 166 1,400 -545 Descending Washington Center
12:51PM 35.8667 -78.7833 215° Southwest  Level FlightAware Approximate
12:58PM 35.8776 -78.7875 215° Southwest  Level Estimated
12:59PM 35.8776 -78.7875 39° Northeast  Level Estimated